Current weather by "City, St" or "zip code"  
 

Current Conditions: McEntire Air National Guard Weather Facility Base, SC

Mostly Cloudy


62.0 F

Last Updated on Jan 31 2023, 7:55 pm EST
Humidity: 99%
Wind Speed: S 3.5 mph
Barometer 30.11 in
Dewpoint: 61.7 F
Visibility: 10.00 mi
Precip: --
Heat Index: NA
Wind Chill: NA
Current conditions at:

McEntire Air National Guard Weather Facility Base, SC (KMMT)

Lat: 33.91667 Lon: 80.8

Local Radar Image active severe weather and emergency alerts image image weather storm and storm spotter reports image weather observation monitoring service image
Local
Radar
Active
Alerts
Storm Reports Obs
Monitoring

Sign-up For Email & Text Message Weather Alert Notification Services



Advertise Here

Observation History for McEntire Air National Guard Weather Facility Base, SC


Time Wind
(mph)
Vis
(mi)
Weather Precip (in) Temperature (F) Relative
Humidity
Wind
Chill
(F)
Heat
Index
(F)
Pressure
Air Dwpt altimeter
(in)
sea level
(mb)
Rmks
7:55 pm EST S 3.5 10.00 Mostly Cloudy -- 62.0 61.7 99% NA NA 30.11 1019.9
6:55 pm EST S 4.6 10.00 Mostly Cloudy -- 62.0 61.7 99% 62 NA 30.11 1019.9
5:55 pm EST S 4.6 10.00 Mostly Cloudy -- 64.0 63.7 99% NA NA 30.09 1019.2
3:55 pm EST SW 4.6 10.00 Mostly Cloudy -- 66.0 65.3 97% NA NA 30.08 1018.8
11:55 am EST W 6.9 10.00 Overcast -- 62.0 61.2 99% 62 NA 30.18 1022.2
10:55 am EST S 6.9 10.00 Overcast -- 58.0 57.9 99% 57 NA 30.17 1021.9
9:55 am EST S 4.6 3.00 Fog/Mist -- 56.0 56.1 99% 55 NA 30.18 1022.3
3:55 am EST N 0.0 0.63 Fog/Mist -- 56.0 55.4 99% NA NA 30.13 1020.5
2:55 am EST N 0.0 3.00 Fog/Mist -- 56.0 55.4 99% NA NA 30.13 1020.5
1:55 am EST S 5.8 9.00 Overcast -- 56.0 55.9 99% 55 NA 30.14 1020.9
12:55 am EST N 0.0 10.00 Overcast -- 56.0 56.1 99% NA NA 30.15 1021.2
11:55 pm EST N 0.0 10.00 Overcast -- 56.0 56.1 99% NA NA 30.16 1021.6
10:55 pm EST N 0.0 10.00 Overcast -- 57.0 56.5 99% NA NA 30.18 1022.3
8:55 pm EST N 0.0 10.00 Overcast -- 57.0 56.8 99% NA NA 30.17 1022.0

Regional Weather Observation


Columbia - Jim Hamilton L.B. Owens Airport, SC (KCUB)

A Few Clouds
62.0 F

Columbia, Columbia Metropolitan Airport, SC (KCAE)

Mostly Cloudy
62.0 F

McEntire Air National Guard Weather Facility Base, SC (KMMT)

Mostly Cloudy
62.0 F

Camden Woodward Field, SC (KCDN)

Overcast
59.0 F

Sumter Airport, SC (KSMS)

Fair
61.0 F

Shaw Air Force Base, SC (KSSC)

Partly Cloudy
60.0 F

Advertise Here


Advertise Here